Theta_e
299 298 298 300 302 304 305 296 286 295 296 286 285 284 286 288 284 288 286 285 284 282 281 275 277 279 281 285 282 277 280 276 271 274 277 279 278 276 272 264 264 268 265 269
299 299 298 298 301 302 299 292 286 295 294 283 281 284 284 285 284 284 284 284 284 284 281 276 277 279 284 284 282 279 280 272 268 274 275 278 275 277 277 266 264 266 262 268
299 299 299 297 298 300 298 289 282 285 287 286 285 282 282 281 287 286 287 284 284 282 279 280 276 279 282 283 282 287 283 274 272 275 276 275 274 276 277 270 262 262 268 271
299 298 298 298 298 299 296 291 286 285 279 281 285 287 284 282 280 286 288 283 282 281 279 277 275 279 279 282 286 281 279 269 270 271 273 273 275 275 276 272 269 267 272 268
298 298 297 297 297 297 291 287 286 285 283 284 285 286 283 282 282 283 282 281 284 284 280 281 277 278 278 278 280 279 279 270 274 270 274 274 273 275 275 276 275 271 274 274
297 298 297 297 297 296 289 293 294 290 286 283 284 286 287 286 285 284 286 284 284 282 284 285 283 282 282 280 279 276 276 271 266 268 271 272 271 274 275 272 269 273 267 274
294 297 297 297 297 296 291 292 293 288 285 283 285 286 288 285 286 286 284 287 285 285 286 285 283 281 280 280 278 280 273 270 268 265 266 266 279 277 277 275 275 274 273 274
294 296 297 297 296 296 291 292 289 287 285 286 285 284 287 286 286 283 284 282 285 285 283 279 273 270 273 269 276 277 278 272 268 268 257 272 278 275 275 273 275 278 277 279
294 295 296 296 296 296 292 292 294 289 285 286 289 287 286 282 283 281 281 283 285 283 282 279 271 268 267 264 267 278 277 274 268 257 261 265 279 276 279 278 271 278 279 279
294 294 294 295 296 296 293 291 295 291 285 288 289 286 284 282 280 278 279 279 282 283 278 277 273 271 269 267 266 270 271 267 264 260 259 268 277 280 280 270 277 280 280 280
293 294 294 295 296 296 293 291 295 292 285 288 292 289 282 280 281 279 279 280 279 279 278 276 273 274 271 268 271 270 269 268 264 260 259 269 279 280 276 281 281 282 282 281
293 294 294 295 295 296 295 288 296 297 288 286 288 289 287 291 290 280 282 281 277 282 278 276 275 271 268 268 268 275 271 275 270 272 273 280 281 282 283 282 281 281 281 281
293 294 294 294 295 295 294 289 292 293 286 285 287 286 289 290 288 290 280 281 283 282 283 280 279 277 275 268 269 273 274 277 275 275 281 280 280 283 283 282 282 282 282 281
293 293 294 293 294 294 294 289 292 292 286 284 283 287 287 288 288 287 288 286 283 284 285 283 279 278 279 274 276 274 276 277 274 274 278 280 282 281 283 283 283 281 282 282
291 293 293 293 294 293 294 292 293 295 288 281 278 284 284 287 288 287 288 287 285 284 283 281 277 277 278 274 272 270 276 276 276 278 281 283 284 282 282 281 280 280 279 279
292 291 291 292 293 292 292 284 292 294 291 279 278 282 282 285 287 287 287 287 285 285 284 282 282 279 281 276 270 276 279 279 282 286 283 282 285 280 280 278 279 278 278 279
290 291 291 292 292 287 285 284 289 295 292 279 274 275 280 284 284 283 282 283 282 284 283 282 281 278 279 276 273 281 282 282 283 282 279 282 280 283 280 279 278 275 273 273
290 291 292 292 293 289 284 289 293 294 285 284 271 272 276 282 279 278 282 280 282 281 279 279 279 277 276 273 274 283 289 289 285 282 282 285 279 274 273 272 271 272 274 272
290 291 292 287 283 279 283 292 293 290 285 277 272 271 270 281 278 279 280 283 280 278 278 278 279 276 273 274 276 278 283 284 285 276 279 280 275 282 276 271 268 274 275 270
290 285 276 274 280 290 291 287 284 283 284 281 274 276 270 279 277 277 278 280 276 275 274 272 270 271 274 273 278 283 287 287 278 278 281 267 269 276 277 274 278 278 278 275
277 272 273 278 288 282 282 277 277 278 276 280 269 271 273 278 276 273 279 277 275 269 268 270 266 268 272 278 280 285 286 286 280 285 287 284 280 282 280 276 275 275 275 273
279 282 285 283 276 265 271 274 276 276 274 269 269 272 273 276 280 278 275 270 272 265 266 270 267 272 276 274 274 275 276 279 281 283 282 283 279 281 278 276 275 274 275 270
279 274 270 274 270 266 264 263 271 268 272 274 272 275 274 276 276 274 273 269 265 267 267 266 271 275 272 269 268 272 268 264 265 270 271 274 280 275 276 277 271 270 271 270
272 269 262 266 264 260 262 264 265 268 267 271 272 273 276 274 273 271 272 263 267 266 264 267 270 274 275 267 264 264 267 264 263 265 265 267 272 276 276 275 271 273 272 269
271 271 263 265 265 263 265 266 269 269 276 278 277 273 273 271 270 266 262 263 262 267 270 270 274 270 267 266 265 263 263 263 262 260 261 262 264 269 272 271 272 273 269 269
275 274 268 265 267 267 267 270 269 275 280 282 277 272 270 266 270 261 265 267 267 273 268 273 266 266 264 264 262 263 261 261 261 260 259 259 259 263 266 265 267 269 272 271
273 267 267 268 268 271 273 275 277 282 279 278 278 275 275 266 260 267 265 270 272 272 269 264 264 266 264 261 260 260 260 262 261 259 259 261 262 259 263 267 267 264 264 266
Wind_Speed
16 14 16 16 17 17 6 3 4 0 1 2 3 4 6 5 5 1 4 1 4 5 3 4 3 7 2 6 6 7 2 4 3 7 1 2 3 6 6 7 6 3 4 14
17 16 16 15 16 15 2 3 2 0 1 6 4 2 2 3 5 5 6 7 7 2 3 3 3 3 3 6 4 6 7 1 3 6 3 4 5 5 5 6 4 7 7 13
20 17 16 14 17 18 6 2 4 1 2 2 6 7 4 5 3 5 4 3 4 2 2 1 3 4 1 2 3 6 4 3 7 8 5 5 5 6 8 7 5 5 13 15
24 20 16 15 19 18 5 5 5 7 8 7 3 8 12 9 7 4 6 3 8 7 4 2 5 2 2 3 6 3 4 4 3 5 8 4 7 7 13 13 10 9 9 11
23 24 18 18 17 18 5 4 4 2 4 10 14 12 13 12 6 11 7 7 13 11 9 8 7 6 4 6 2 5 3 2 1 6 2 5 8 15 16 17 15 15 21 27
27 23 24 19 19 15 4 4 4 3 10 9 11 17 14 13 11 7 6 16 8 11 20 2 2 1 4 6 8 6 6 5 3 8 4 7 9 8 16 6 5 12 9 18
19 30 25 22 21 20 5 5 5 5 9 11 15 13 16 11 16 10 6 9 7 4 12 9 5 10 8 6 4 3 6 5 3 5 6 3 6 3 9 10 7 17 8 14
21 28 26 24 25 25 8 7 7 6 8 12 14 11 18 8 7 4 7 2 2 7 5 4 4 5 5 4 3 1 3 4 3 2 4 10 6 4 8 9 10 16 19 20
19 23 24 26 26 23 12 10 9 7 4 13 10 18 13 8 7 4 3 2 2 2 3 3 6 7 5 4 5 1 6 6 5 3 4 7 6 4 4 4 8 8 15 14
27 26 26 23 26 25 14 7 13 7 5 3 10 17 14 8 5 6 6 5 2 3 2 3 4 5 4 6 11 8 4 2 6 3 5 13 11 6 5 5 9 6 10 9
29 27 26 24 26 24 16 8 13 11 4 4 7 8 8 5 5 9 8 6 0 2 5 5 5 5 8 3 5 9 10 11 6 3 2 12 9 5 10 8 3 3 6 7
28 27 26 25 24 26 16 8 9 12 9 5 5 3 5 4 16 11 12 5 7 9 4 4 3 2 2 5 4 3 6 9 11 14 13 1 12 5 9 2 4 4 4 6
23 25 21 19 21 22 19 8 9 6 8 3 3 5 2 5 2 7 11 2 7 6 5 5 3 4 5 5 8 5 6 5 3 2 9 18 13 14 9 6 10 6 7 7
18 17 16 17 20 23 29 14 11 11 3 6 1 0 3 2 5 0 3 10 7 7 2 3 3 3 3 4 3 4 5 9 6 8 11 10 16 14 14 13 12 8 8 9
9 18 16 14 18 30 18 12 12 10 5 5 4 2 1 1 5 8 9 16 10 4 3 3 5 2 3 1 1 4 7 9 8 10 9 5 8 4 6 10 11 12 9 8
16 10 5 11 19 30 8 6 6 9 6 4 5 3 1 2 6 9 10 5 4 3 5 3 3 1 3 4 5 8 10 8 10 16 8 11 12 3 5 6 9 6 8 10
8 9 6 7 12 5 2 2 2 19 3 4 5 2 2 5 5 2 2 3 2 3 3 3 3 2 3 3 6 6 9 15 17 15 3 18 9 13 9 9 6 4 3 5
6 7 6 7 10 7 3 2 10 8 3 2 6 3 2 2 3 3 2 3 2 1 3 2 3 3 2 8 7 13 21 22 15 20 15 24 4 2 4 2 4 4 7 6
5 4 7 3 3 2 2 3 7 4 2 4 3 10 5 3 2 3 2 2 3 1 2 2 4 3 11 9 11 11 13 13 12 4 8 11 11 19 9 6 5 8 11 6
1 5 5 4 2 7 7 8 2 1 2 1 3 3 4 4 2 3 4 2 4 4 3 3 3 8 5 7 14 13 19 18 8 6 13 3 8 14 13 16 12 15 13 9
3 2 0 4 12 4 1 1 3 2 2 3 3 4 7 2 4 4 1 4 3 4 4 5 4 7 9 13 20 28 23 16 12 16 20 10 8 9 11 9 13 12 11 11
5 3 1 2 3 5 3 0 1 3 2 1 5 4 4 3 2 4 1 4 2 4 3 2 6 9 15 7 8 8 9 10 14 13 18 16 12 11 8 6 7 12 12 7
3 5 5 2 2 3 3 4 1 2 2 4 4 4 4 3 4 5 3 5 3 2 2 7 10 7 5 6 4 8 5 4 6 8 6 7 12 6 9 10 6 5 7 7
3 4 3 4 3 5 6 4 4 4 3 6 2 4 3 3 3 2 6 2 2 2 3 12 5 10 7 4 3 2 4 4 6 8 7 8 7 8 7 9 4 6 8 8
1 4 6 7 5 2 3 3 4 1 3 2 4 3 2 3 5 2 7 4 7 10 10 5 6 4 2 3 2 4 4 4 4 3 5 6 6 6 6 4 5 7 5 7
3 4 1 2 3 3 1 2 2 1 4 4 2 3 3 2 6 4 10 9 9 7 6 6 1 2 3 4 3 5 4 4 5 5 4 4 4 5 5 3 2 4 6 7
4 4 1 4 2 4 4 3 4 3 2 8 4 6 5 5 4 2 5 8 5 5 4 2 3 3 2 2 3 5 4 6 6 3 4 4 3 3 2 3 3 3 2 3
Wind_Direction
276 280 290 290 301 317 260 186 232 189 39 134 171 197 190 162 147 160 111 33 222 210 195 216 247 218 235 156 149 144 146 139 197 214 298 190 197 168 146 123 244 218 158 268
280 281 279 283 287 293 289 213 111 127 18 197 195 213 167 184 138 176 168 191 205 134 236 258 191 197 356 143 132 158 186 319 6 332 357 352 226 193 135 114 90 205 138 262
267 272 272 271 277 278 293 144 175 154 224 306 170 146 195 171 223 152 143 155 110 139 248 144 260 175 131 122 109 127 121 119 181 201 202 131 198 192 174 131 135 193 229 271
268 259 264 262 275 277 274 219 213 189 182 214 187 182 171 150 164 196 136 208 229 164 205 279 230 138 106 27 165 99 119 196 188 254 245 231 232 210 187 202 189 182 266 223
258 260 248 260 261 267 250 278 169 228 150 152 183 197 191 159 168 160 198 222 193 185 187 200 189 138 199 195 171 155 136 249 139 287 285 203 253 227 215 224 227 258 263 278
289 251 250 245 251 253 256 217 269 219 177 163 192 212 200 189 152 222 177 197 134 192 225 138 330 154 138 166 153 161 153 138 92 269 331 294 292 225 186 191 213 208 199 235
277 270 246 241 237 245 212 256 288 222 217 196 206 171 181 176 196 179 153 152 145 190 112 124 63 52 60 73 42 138 142 116 100 262 349 321 249 138 181 201 202 207 258 259
280 266 253 238 242 251 239 251 238 284 240 199 192 184 178 169 147 97 137 155 126 160 101 96 55 349 19 316 20 49 143 130 114 211 213 295 285 168 160 177 280 203 220 251
258 268 262 248 248 251 255 244 238 231 287 214 151 177 177 164 149 112 91 34 3 131 104 137 167 194 198 276 349 328 87 76 115 87 172 223 237 152 160 130 294 200 195 233
268 258 254 244 247 255 258 245 230 224 246 205 181 183 176 136 119 115 130 151 94 38 135 160 172 226 153 184 171 167 141 96 173 192 238 282 244 154 160 86 240 169 191 217
267 261 254 247 251 250 259 246 227 217 228 231 214 207 145 124 164 139 152 103 206 119 196 178 205 177 214 140 178 176 165 155 184 106 104 273 150 78 175 212 207 204 199 206
257 254 254 253 256 249 244 255 233 212 235 252 150 183 288 266 166 128 184 152 156 162 155 211 136 185 114 153 238 150 227 193 178 192 210 283 206 201 224 160 212 219 202 206
250 251 252 262 259 270 263 235 240 210 210 238 145 196 261 356 348 148 128 259 171 175 191 156 165 209 131 166 234 189 240 185 236 125 230 234 229 254 248 233 230 206 217 201
253 248 244 264 266 290 279 223 221 212 265 182 171 140 160 347 290 90 128 132 97 111 122 123 142 196 159 207 200 184 189 143 199 266 279 287 260 233 238 244 244 231 221 200
288 263 245 281 301 295 266 181 194 215 233 171 137 102 356 180 213 127 128 128 121 139 137 138 203 166 132 88 66 246 185 184 185 231 205 205 253 214 201 221 229 227 206 222
267 258 289 308 303 291 165 164 204 205 158 161 134 45 61 68 113 117 129 112 88 110 143 175 198 108 174 191 216 248 210 211 208 248 211 219 261 229 203 206 229 224 204 216
291 311 322 272 289 306 142 101 159 168 174 111 116 102 9 111 90 77 81 38 125 127 123 173 153 190 177 236 226 227 220 231 238 246 315 278 217 253 216 209 217 171 206 222
297 315 312 290 316 357 57 340 59 94 131 126 119 94 169 205 143 131 104 101 98 124 130 100 172 124 203 249 242 235 241 244 242 241 210 242 268 327 228 182 140 200 226 218
341 2 333 352 55 1 347 202 114 91 42 106 123 144 178 155 98 105 117 140 141 14 128 173 157 168 230 214 215 234 224 225 225 281 224 238 228 256 239 198 207 214 229 212
91 33 23 339 270 303 285 167 108 66 73 129 100 114 152 148 155 105 117 174 139 176 199 108 191 251 268 213 218 242 248 237 157 234 256 267 252 228 238 219 226 216 222 214
38 57 280 260 321 355 34 136 115 138 195 134 156 143 134 260 122 124 271 148 161 133 238 145 258 268 242 217 223 234 254 257 230 237 254 252 219 213 227 230 222 218 217 214
167 148 228 298 24 17 22 256 343 158 198 20 137 169 134 141 145 114 210 116 87 194 155 117 265 248 244 227 244 261 247 243 250 234 244 241 230 226 219 222 220 213 220 194
35 43 22 58 286 29 156 217 184 110 156 172 179 122 126 137 63 66 93 95 171 80 94 225 234 253 259 221 234 262 267 282 288 281 270 255 246 224 202 226 219 189 200 199
128 142 271 174 239 240 191 188 178 229 53 142 113 88 105 91 77 143 104 65 120 148 224 232 243 235 250 245 234 204 261 290 287 288 286 279 259 245 223 227 191 186 207 194
244 160 218 201 219 232 191 167 81 319 72 162 124 53 69 119 130 54 99 103 227 212 222 218 230 248 241 267 248 252 288 300 285 269 275 278 281 269 268 233 206 204 175 177
246 263 257 251 86 315 64 114 89 187 98 248 81 166 129 177 144 127 207 150 216 240 207 226 170 237 227 245 274 277 274 270 271 273 256 273 286 275 265 289 249 215 189 195
237 247 202 160 202 194 192 129 196 118 153 229 168 209 182 90 77 269 191 207 206 231 259 229 199 196 286 331 334 317 330 305 286 292 345 301 310 319 305 285 262 255 206 167